Year,Month,Day,Hour,Minute,Value (Times are PST for barometer in hPa)
2019,05,15,00,00,1002.78
2019,05,15,00,01,1002.85
2019,05,15,00,02,1002.85
2019,05,15,00,03,1002.85
2019,05,15,00,04,1002.85
2019,05,15,00,05,1002.88
2019,05,15,00,06,1002.85
2019,05,15,00,07,1002.78
2019,05,15,00,08,1002.78
2019,05,15,00,09,1002.74
2019,05,15,00,10,1002.78
2019,05,15,00,11,1002.74
2019,05,15,00,12,1002.71
2019,05,15,00,13,1002.71
2019,05,15,00,14,1002.71
2019,05,15,00,15,1002.71
2019,05,15,00,16,1002.71
2019,05,15,00,17,1002.68
2019,05,15,00,18,1002.68
2019,05,15,00,19,1002.68
2019,05,15,00,20,1002.71
2019,05,15,00,21,1002.74
2019,05,15,00,22,1002.71
2019,05,15,00,23,1002.78
2019,05,15,00,24,1002.78
2019,05,15,00,25,1002.81
2019,05,15,00,26,1002.81
2019,05,15,00,27,1002.85
2019,05,15,00,28,1002.85
2019,05,15,00,29,1002.88
2019,05,15,00,30,1002.88
2019,05,15,00,31,1002.81
2019,05,15,00,32,1002.81
2019,05,15,00,33,1002.85
2019,05,15,00,34,1002.95
2019,05,15,00,35,1002.88
2019,05,15,00,36,1002.91
2019,05,15,00,37,1002.95
2019,05,15,00,38,1002.91
2019,05,15,00,39,1002.88
2019,05,15,00,40,1002.88
2019,05,15,00,41,1002.88
2019,05,15,00,42,1002.81
2019,05,15,00,43,1002.81
2019,05,15,00,44,1002.81
2019,05,15,00,45,1002.85
2019,05,15,00,46,1002.81
2019,05,15,00,47,1002.78
2019,05,15,00,48,1002.78
2019,05,15,00,49,1002.74
2019,05,15,00,50,1002.78
2019,05,15,00,51,1002.81
2019,05,15,00,52,1002.81
2019,05,15,00,53,1002.78
2019,05,15,00,54,1002.78
2019,05,15,00,55,1002.74
2019,05,15,00,56,1002.78
2019,05,15,00,57,1002.74
2019,05,15,00,58,1002.71
2019,05,15,00,59,1002.68
2019,05,15,01,00,1002.68
2019,05,15,01,01,1002.74
2019,05,15,01,02,1002.71
2019,05,15,01,03,1002.68
2019,05,15,01,04,1002.68
2019,05,15,01,05,1002.68
2019,05,15,01,06,1002.74
2019,05,15,01,07,1002.74
2019,05,15,01,08,1002.78
2019,05,15,01,09,1002.81
2019,05,15,01,10,1002.85
2019,05,15,01,11,1002.81
2019,05,15,01,12,1002.81
2019,05,15,01,13,1002.85
2019,05,15,01,14,1002.81
2019,05,15,01,15,1002.78
2019,05,15,01,16,1002.81
2019,05,15,01,17,1002.85
2019,05,15,01,18,1002.88
2019,05,15,01,19,1002.85
2019,05,15,01,20,1002.91
2019,05,15,01,21,1002.95
2019,05,15,01,22,1002.98
2019,05,15,01,23,1003.01
2019,05,15,01,24,1003.05
2019,05,15,01,25,1003.05
2019,05,15,01,26,1003.08
2019,05,15,01,27,1003.05
2019,05,15,01,28,1003.08
2019,05,15,01,29,1003.15
2019,05,15,01,30,1003.12
2019,05,15,01,31,1003.12
2019,05,15,01,32,1003.12
2019,05,15,01,33,1003.12
2019,05,15,01,34,1003.12
2019,05,15,01,35,1003.08
2019,05,15,01,36,1003.12
2019,05,15,01,37,1003.15
2019,05,15,01,38,1003.12
2019,05,15,01,39,1003.08
2019,05,15,01,40,1003.12
2019,05,15,01,41,1003.15
2019,05,15,01,42,1003.18
2019,05,15,01,43,1003.15
2019,05,15,01,44,1003.12
2019,05,15,01,45,1003.08
2019,05,15,01,46,1003.05
2019,05,15,01,47,1003.15
2019,05,15,01,48,1003.15
2019,05,15,01,49,1003.12
2019,05,15,01,50,1003.12
2019,05,15,01,51,1003.08
2019,05,15,01,52,1003.15
2019,05,15,01,53,1003.18
2019,05,15,01,54,1003.18
2019,05,15,01,55,1003.18
2019,05,15,01,56,1003.18
2019,05,15,01,57,1003.15
2019,05,15,01,58,1003.15
2019,05,15,01,59,1003.15
2019,05,15,02,00,1003.15
2019,05,15,02,01,1003.15
2019,05,15,02,02,1003.18
2019,05,15,02,03,1003.12
2019,05,15,02,04,1003.12
2019,05,15,02,05,1003.15
2019,05,15,02,06,1003.18
2019,05,15,02,07,1003.18
2019,05,15,02,08,1003.15
2019,05,15,02,09,1003.15
2019,05,15,02,10,1003.12
2019,05,15,02,11,1003.08
2019,05,15,02,12,1003.05
2019,05,15,02,13,1003.08
2019,05,15,02,14,1003.12
2019,05,15,02,15,1003.01
2019,05,15,02,16,1002.98
2019,05,15,02,17,1002.98
2019,05,15,02,18,1002.91
2019,05,15,02,19,1002.91
2019,05,15,02,20,1002.88
2019,05,15,02,21,1002.88
2019,05,15,02,22,1002.81
2019,05,15,02,23,1002.85
2019,05,15,02,24,1002.85
2019,05,15,02,25,1002.81
2019,05,15,02,26,1002.85
2019,05,15,02,27,1002.85
2019,05,15,02,28,1002.81
2019,05,15,02,29,1002.78
2019,05,15,02,30,1002.71
2019,05,15,02,31,1002.78
2019,05,15,02,32,1002.78
2019,05,15,02,33,1002.78
2019,05,15,02,34,1002.81
2019,05,15,02,35,1002.81
2019,05,15,02,36,1002.88
2019,05,15,02,37,1002.88
2019,05,15,02,38,1002.85
2019,05,15,02,39,1002.88
2019,05,15,02,40,1002.88
2019,05,15,02,41,1002.85
2019,05,15,02,42,1002.85
2019,05,15,02,43,1002.85
2019,05,15,02,44,1002.81
2019,05,15,02,45,1002.85
2019,05,15,02,46,1002.81
2019,05,15,02,47,1002.88
2019,05,15,02,48,1002.88
2019,05,15,02,49,1002.85
2019,05,15,02,50,1002.88
2019,05,15,02,51,1002.85
2019,05,15,02,52,1002.85
2019,05,15,02,53,1002.88
2019,05,15,02,54,1002.85
2019,05,15,02,55,1002.81
2019,05,15,02,56,1002.85
2019,05,15,02,57,1002.85
2019,05,15,02,58,1002.85
2019,05,15,02,59,1002.78
2019,05,15,03,00,1002.78
2019,05,15,03,01,1002.74
2019,05,15,03,02,1002.71
2019,05,15,03,03,1002.71
2019,05,15,03,04,1002.71
2019,05,15,03,05,1002.71
2019,05,15,03,06,1002.71
2019,05,15,03,07,1002.71
2019,05,15,03,08,1002.68
2019,05,15,03,09,1002.64
2019,05,15,03,10,1002.68
2019,05,15,03,11,1002.68
2019,05,15,03,12,1002.68
2019,05,15,03,13,1002.64
2019,05,15,03,14,1002.68
2019,05,15,03,15,1002.68
2019,05,15,03,16,1002.71
2019,05,15,03,17,1002.68
2019,05,15,03,18,1002.71
2019,05,15,03,19,1002.68
2019,05,15,03,20,1002.64
2019,05,15,03,21,1002.64
2019,05,15,03,22,1002.61
2019,05,15,03,23,1002.64
2019,05,15,03,24,1002.61
2019,05,15,03,25,1002.64
2019,05,15,03,26,1002.64
2019,05,15,03,27,1002.68
2019,05,15,03,28,1002.68
2019,05,15,03,29,1002.68
2019,05,15,03,30,1002.68
2019,05,15,03,31,1002.71
2019,05,15,03,32,1002.68
2019,05,15,03,33,1002.71
2019,05,15,03,34,1002.74
2019,05,15,03,35,1002.74
2019,05,15,03,36,1002.74
2019,05,15,03,37,1002.74
2019,05,15,03,38,1002.71
2019,05,15,03,39,1002.71
2019,05,15,03,40,1002.74
2019,05,15,03,41,1002.74
2019,05,15,03,42,1002.71
2019,05,15,03,43,1002.74
2019,05,15,03,44,1002.78
2019,05,15,03,45,1002.81
2019,05,15,03,46,1002.78
2019,05,15,03,47,1002.81
2019,05,15,03,48,1002.81
2019,05,15,03,49,1002.81
2019,05,15,03,50,1002.81
2019,05,15,03,51,1002.85
2019,05,15,03,52,1002.85
2019,05,15,03,53,1002.88
2019,05,15,03,54,1002.85
2019,05,15,03,55,1002.85
2019,05,15,03,56,1002.81
2019,05,15,03,57,1002.85
2019,05,15,03,58,1002.85
2019,05,15,03,59,1002.85
2019,05,15,04,00,1002.88
2019,05,15,04,01,1002.85
2019,05,15,04,02,1002.88
2019,05,15,04,03,1002.88
2019,05,15,04,04,1002.85
2019,05,15,04,05,1002.85
2019,05,15,04,06,1002.85
2019,05,15,04,07,1002.88
2019,05,15,04,08,1002.85
2019,05,15,04,09,1002.81
2019,05,15,04,10,1002.81
2019,05,15,04,11,1002.85
2019,05,15,04,12,1002.78
2019,05,15,04,13,1002.78
2019,05,15,04,14,1002.78
2019,05,15,04,15,1002.78
2019,05,15,04,16,1002.78
2019,05,15,04,17,1002.78
2019,05,15,04,18,1002.74
2019,05,15,04,19,1002.74
2019,05,15,04,20,1002.68
2019,05,15,04,21,1002.71
2019,05,15,04,22,1002.71
2019,05,15,04,23,1002.64
2019,05,15,04,24,1002.68
2019,05,15,04,25,1002.64
2019,05,15,04,26,1002.64
2019,05,15,04,27,1002.64
2019,05,15,04,28,1002.57
2019,05,15,04,29,1002.57
2019,05,15,04,30,1002.57
2019,05,15,04,31,1002.57
2019,05,15,04,32,1002.57
2019,05,15,04,33,1002.47
2019,05,15,04,34,1002.51
2019,05,15,04,35,1002.51
2019,05,15,04,36,1002.44
2019,05,15,04,37,1002.41
2019,05,15,04,38,1002.41
2019,05,15,04,39,1002.37
2019,05,15,04,40,1002.34
2019,05,15,04,41,1002.30
2019,05,15,04,42,1002.30
2019,05,15,04,43,1002.30
2019,05,15,04,44,1002.30
2019,05,15,04,45,1002.27
2019,05,15,04,46,1002.30
2019,05,15,04,47,1002.34
2019,05,15,04,48,1002.34
2019,05,15,04,49,1002.30
2019,05,15,04,50,1002.30
2019,05,15,04,51,1002.27
2019,05,15,04,52,1002.27
2019,05,15,04,53,1002.30
2019,05,15,04,54,1002.30
2019,05,15,04,55,1002.34
2019,05,15,04,56,1002.34
2019,05,15,04,57,1002.37
2019,05,15,04,58,1002.37
2019,05,15,04,59,1002.37
2019,05,15,05,00,1002.34
2019,05,15,05,01,1002.34
2019,05,15,05,02,1002.34
2019,05,15,05,03,1002.27
2019,05,15,05,04,1002.30
2019,05,15,05,05,1002.30
2019,05,15,05,06,1002.24
2019,05,15,05,07,1002.27
2019,05,15,05,08,1002.24
2019,05,15,05,09,1002.24
2019,05,15,05,10,1002.24
2019,05,15,05,11,1002.20
2019,05,15,05,12,1002.17
2019,05,15,05,13,1002.24
2019,05,15,05,14,1002.20
2019,05,15,05,15,1002.24
2019,05,15,05,16,1002.24
2019,05,15,05,17,1002.20
2019,05,15,05,18,1002.20
2019,05,15,05,19,1002.20
2019,05,15,05,20,1002.17
2019,05,15,05,21,1002.17
2019,05,15,05,22,1002.17
2019,05,15,05,23,1002.13
2019,05,15,05,24,1002.17
2019,05,15,05,25,1002.17
2019,05,15,05,26,1002.17
2019,05,15,05,27,1002.20
2019,05,15,05,28,1002.20
2019,05,15,05,29,1002.17
2019,05,15,05,30,1002.10
2019,05,15,05,31,1002.10
2019,05,15,05,32,1002.07
2019,05,15,05,33,1002.07
2019,05,15,05,34,1002.03
2019,05,15,05,35,1002.03
2019,05,15,05,36,1002.07
2019,05,15,05,37,1002.07
2019,05,15,05,38,1002.07
2019,05,15,05,39,1002.10
2019,05,15,05,40,1002.10
2019,05,15,05,41,1002.13
2019,05,15,05,42,1002.10
2019,05,15,05,43,1002.07
2019,05,15,05,44,1002.03
2019,05,15,05,45,1002.03
2019,05,15,05,46,1002.00
2019,05,15,05,47,1001.93
2019,05,15,05,48,1001.97
2019,05,15,05,49,1001.93
2019,05,15,05,50,1001.93
2019,05,15,05,51,1001.90
2019,05,15,05,52,1001.93
2019,05,15,05,53,1001.97
2019,05,15,05,54,1002.00
2019,05,15,05,55,1002.00
2019,05,15,05,56,1002.00
2019,05,15,05,57,1001.97
2019,05,15,05,58,1001.97
2019,05,15,05,59,1001.93
2019,05,15,06,00,1001.90
2019,05,15,06,01,1001.90
2019,05,15,06,02,1001.90
2019,05,15,06,03,1001.93
2019,05,15,06,04,1001.90
2019,05,15,06,05,1001.90
2019,05,15,06,06,1001.93
2019,05,15,06,07,1001.90
2019,05,15,06,08,1001.86
2019,05,15,06,09,1001.86
2019,05,15,06,10,1001.83
2019,05,15,06,11,1001.76
2019,05,15,06,12,1001.76
2019,05,15,06,13,1001.76
2019,05,15,06,14,1001.73
2019,05,15,06,15,1001.73
2019,05,15,06,16,1001.73
2019,05,15,06,17,1001.73
2019,05,15,06,18,1001.69
2019,05,15,06,19,1001.66
2019,05,15,06,20,1001.66
2019,05,15,06,21,1001.59
2019,05,15,06,22,1001.59
2019,05,15,06,23,1001.59
2019,05,15,06,24,1001.59
2019,05,15,06,25,1001.59
2019,05,15,06,26,1001.56
2019,05,15,06,27,1001.56
2019,05,15,06,28,1001.59
2019,05,15,06,29,1001.59
2019,05,15,06,30,1001.52
2019,05,15,06,31,1001.49
2019,05,15,06,32,1001.49
2019,05,15,06,33,1001.49
2019,05,15,06,34,1001.46
2019,05,15,06,35,1001.46
2019,05,15,06,36,1001.42
2019,05,15,06,37,1001.39
2019,05,15,06,38,1001.36
2019,05,15,06,39,1001.32
2019,05,15,06,40,1001.29
2019,05,15,06,41,1001.19
2019,05,15,06,42,1001.22
2019,05,15,06,43,1001.19
2019,05,15,06,44,1001.19
2019,05,15,06,45,1001.19
2019,05,15,06,46,1001.22
2019,05,15,06,47,1001.22
2019,05,15,06,48,1001.22
2019,05,15,06,49,1001.22
2019,05,15,06,50,1001.22
2019,05,15,06,51,1001.22
2019,05,15,06,52,1001.19
2019,05,15,06,53,1001.19
2019,05,15,06,54,1001.15
2019,05,15,06,55,1001.15
2019,05,15,06,56,1001.15
2019,05,15,06,57,1001.12
2019,05,15,06,58,1001.15
2019,05,15,06,59,1001.12
2019,05,15,07,00,1001.19
2019,05,15,07,01,1001.12
2019,05,15,07,02,1001.15
2019,05,15,07,03,1001.15
2019,05,15,07,04,1001.15
2019,05,15,07,05,1001.12
2019,05,15,07,06,1001.12
2019,05,15,07,07,1001.12
2019,05,15,07,08,1001.08
2019,05,15,07,09,1001.08
2019,05,15,07,10,1001.12
2019,05,15,07,11,1001.12
2019,05,15,07,12,1001.08
2019,05,15,07,13,1001.05
2019,05,15,07,14,1001.05
2019,05,15,07,15,1001.02
2019,05,15,07,16,1001.05
2019,05,15,07,17,1000.98
2019,05,15,07,18,1000.98
2019,05,15,07,19,1000.98
2019,05,15,07,20,1000.98
2019,05,15,07,21,1000.98
2019,05,15,07,22,1001.02
2019,05,15,07,23,1000.98
2019,05,15,07,24,1000.95
2019,05,15,07,25,1000.98
2019,05,15,07,26,1000.98
2019,05,15,07,27,1000.98
2019,05,15,07,28,1000.95
2019,05,15,07,29,1000.92
2019,05,15,07,30,1000.85
2019,05,15,07,31,1000.85
2019,05,15,07,32,1000.85
2019,05,15,07,33,1000.85
2019,05,15,07,34,1000.81
2019,05,15,07,35,1000.78
2019,05,15,07,36,1000.78
2019,05,15,07,37,1000.71
2019,05,15,07,38,1000.71
2019,05,15,07,39,1000.78
2019,05,15,07,40,1000.75
2019,05,15,07,41,1000.71
2019,05,15,07,42,1000.68
2019,05,15,07,43,1000.68
2019,05,15,07,44,1000.71
2019,05,15,07,45,1000.71
2019,05,15,07,46,1000.71
2019,05,15,07,47,1000.71
2019,05,15,07,48,1000.71
2019,05,15,07,49,1000.68
2019,05,15,07,50,1000.64
2019,05,15,07,51,1000.71
2019,05,15,07,52,1000.71
2019,05,15,07,53,1000.71
2019,05,15,07,54,1000.68
2019,05,15,07,55,1000.61
2019,05,15,07,56,1000.58
2019,05,15,07,57,1000.58
2019,05,15,07,58,1000.58
2019,05,15,07,59,1000.54
2019,05,15,08,00,1000.61
2019,05,15,08,01,1000.58
2019,05,15,08,02,1000.58
2019,05,15,08,03,1000.61
2019,05,15,08,04,1000.58
2019,05,15,08,05,1000.61
2019,05,15,08,06,1000.58
2019,05,15,08,07,1000.61
2019,05,15,08,08,1000.51
2019,05,15,08,09,1000.51
2019,05,15,08,10,1000.48
2019,05,15,08,11,1000.51
2019,05,15,08,12,1000.48
2019,05,15,08,13,1000.44
2019,05,15,08,14,1000.44
2019,05,15,08,15,1000.37
2019,05,15,08,16,1000.41
2019,05,15,08,17,1000.44
2019,05,15,08,18,1000.44
2019,05,15,08,19,1000.41
2019,05,15,08,20,1000.41
2019,05,15,08,21,1000.34
2019,05,15,08,22,1000.34
2019,05,15,08,23,1000.37
2019,05,15,08,24,1000.34
2019,05,15,08,25,1000.37
2019,05,15,08,26,1000.34
2019,05,15,08,27,1000.34
2019,05,15,08,28,1000.31
2019,05,15,08,29,1000.27
2019,05,15,08,30,1000.27
2019,05,15,08,31,1000.24
2019,05,15,08,32,1000.24
2019,05,15,08,33,1000.24
2019,05,15,08,34,1000.20
2019,05,15,08,35,1000.20
2019,05,15,08,36,1000.17
2019,05,15,08,37,1000.14
2019,05,15,08,38,1000.07
2019,05,15,08,39,1000.07
2019,05,15,08,40,1000.07
2019,05,15,08,41,1000.03
2019,05,15,08,42,1000.00
2019,05,15,08,43,999.97
2019,05,15,08,44,999.93
2019,05,15,08,45,999.90
2019,05,15,08,46,999.93
2019,05,15,08,47,999.90
2019,05,15,08,48,999.90
2019,05,15,08,49,999.87
2019,05,15,08,50,999.87
2019,05,15,08,51,999.80
2019,05,15,08,52,999.83
2019,05,15,08,53,999.76
2019,05,15,08,54,999.73
2019,05,15,08,55,999.73
2019,05,15,08,56,999.70
2019,05,15,08,57,999.70
2019,05,15,08,58,999.63
2019,05,15,08,59,999.63
2019,05,15,09,00,999.59
2019,05,15,09,01,999.59
2019,05,15,09,02,999.59
2019,05,15,09,03,999.63
2019,05,15,09,04,999.63
2019,05,15,09,05,999.53
2019,05,15,09,06,999.49
2019,05,15,09,07,999.49
2019,05,15,09,08,999.43
2019,05,15,09,09,999.49
2019,05,15,09,10,999.43
2019,05,15,09,11,999.46
2019,05,15,09,12,999.46
2019,05,15,09,13,999.46
2019,05,15,09,14,999.43
2019,05,15,09,15,999.43
2019,05,15,09,16,999.39
2019,05,15,09,17,999.36
2019,05,15,09,18,999.32
2019,05,15,09,19,999.29
2019,05,15,09,20,999.22
2019,05,15,09,21,999.15
2019,05,15,09,22,999.26
2019,05,15,09,23,999.22
2019,05,15,09,24,999.22
2019,05,15,09,25,999.15
2019,05,15,09,26,999.19
2019,05,15,09,27,999.19
2019,05,15,09,28,999.19
2019,05,15,09,29,999.22
2019,05,15,09,30,999.19
2019,05,15,09,31,999.19
2019,05,15,09,32,999.22
2019,05,15,09,33,999.12
2019,05,15,09,34,999.09
2019,05,15,09,35,999.15
2019,05,15,09,36,999.15
2019,05,15,09,37,999.15
2019,05,15,09,38,999.15
2019,05,15,09,39,999.19
2019,05,15,09,40,999.15
2019,05,15,09,41,999.12
2019,05,15,09,42,999.09
2019,05,15,09,43,999.02
2019,05,15,09,44,999.02
2019,05,15,09,45,999.02
2019,05,15,09,46,998.95
2019,05,15,09,47,999.02
2019,05,15,09,48,998.95
2019,05,15,09,49,998.95
2019,05,15,09,50,998.92
2019,05,15,09,51,998.88
2019,05,15,09,52,998.88
2019,05,15,09,53,998.88
2019,05,15,09,54,998.88
2019,05,15,09,55,998.85
2019,05,15,09,56,998.85
2019,05,15,09,57,998.82
2019,05,15,09,58,998.82
2019,05,15,09,59,998.75
2019,05,15,10,00,998.82
2019,05,15,10,01,998.68
2019,05,15,10,02,998.68
2019,05,15,10,03,998.68
2019,05,15,10,04,998.61
2019,05,15,10,05,998.61
2019,05,15,10,06,998.54
2019,05,15,10,07,998.58
2019,05,15,10,08,998.61
2019,05,15,10,09,998.65
2019,05,15,10,10,998.61
2019,05,15,10,11,998.61
2019,05,15,10,12,998.58
2019,05,15,10,13,998.58
2019,05,15,10,14,998.54
2019,05,15,10,15,998.54
2019,05,15,10,16,998.54
2019,05,15,10,17,998.51
2019,05,15,10,18,998.51
2019,05,15,10,19,998.48
2019,05,15,10,20,998.44
2019,05,15,10,21,998.38
2019,05,15,10,22,998.38
2019,05,15,10,23,998.31
2019,05,15,10,24,998.21
2019,05,15,10,25,998.21
2019,05,15,10,26,998.17
2019,05,15,10,27,998.17
2019,05,15,10,28,998.14
2019,05,15,10,29,998.21
2019,05,15,10,30,998.14
2019,05,15,10,31,998.14
2019,05,15,10,32,998.10
2019,05,15,10,33,998.10
2019,05,15,10,34,998.14
2019,05,15,10,35,998.04
2019,05,15,10,36,998.04
2019,05,15,10,37,998.00
2019,05,15,10,38,998.04
2019,05,15,10,39,998.00
2019,05,15,10,40,997.97
2019,05,15,10,41,997.94
2019,05,15,10,42,997.97
2019,05,15,10,43,997.97
2019,05,15,10,44,997.97
2019,05,15,10,45,997.94
2019,05,15,10,46,997.90
2019,05,15,10,47,997.94
2019,05,15,10,48,997.90
2019,05,15,10,49,997.90
2019,05,15,10,50,997.83
2019,05,15,10,51,997.80
2019,05,15,10,52,997.80
2019,05,15,10,53,997.77
2019,05,15,10,54,997.73
2019,05,15,10,55,997.77
2019,05,15,10,56,997.70
2019,05,15,10,57,997.73
2019,05,15,10,58,997.63
2019,05,15,10,59,997.63
2019,05,15,11,00,997.66
2019,05,15,11,01,997.63
2019,05,15,11,02,997.63
2019,05,15,11,03,997.66
2019,05,15,11,04,997.63
2019,05,15,11,05,997.63
2019,05,15,11,06,997.56
2019,05,15,11,07,997.56
2019,05,15,11,08,997.60
2019,05,15,11,09,997.50
2019,05,15,11,10,997.50
2019,05,15,11,11,997.46
2019,05,15,11,12,997.43
2019,05,15,11,13,997.46
2019,05,15,11,14,997.43
2019,05,15,11,15,997.39
2019,05,15,11,16,997.36
2019,05,15,11,17,997.39
2019,05,15,11,18,997.36
2019,05,15,11,19,997.33
2019,05,15,11,20,997.29
2019,05,15,11,21,997.33
2019,05,15,11,22,997.22
2019,05,15,11,23,997.29
2019,05,15,11,24,997.22
2019,05,15,11,25,997.22
2019,05,15,11,26,997.22
2019,05,15,11,27,997.26
2019,05,15,11,28,997.22
2019,05,15,11,29,997.26
2019,05,15,11,30,997.26
2019,05,15,11,31,997.22
2019,05,15,11,32,997.19
2019,05,15,11,33,997.16
2019,05,15,11,34,997.22
2019,05,15,11,35,997.22
2019,05,15,11,36,997.19
2019,05,15,11,37,997.16
2019,05,15,11,38,997.12
2019,05,15,11,39,997.09
2019,05,15,11,40,997.09
2019,05,15,11,41,996.95
2019,05,15,11,42,996.99
2019,05,15,11,43,996.95
2019,05,15,11,44,996.92
2019,05,15,11,45,996.85
2019,05,15,11,46,996.85
2019,05,15,11,47,996.89
2019,05,15,11,48,996.92
2019,05,15,11,49,996.89
2019,05,15,11,50,996.82
2019,05,15,11,51,996.82
2019,05,15,11,52,996.78
2019,05,15,11,53,996.75
2019,05,15,11,54,996.65
2019,05,15,11,55,996.61
2019,05,15,11,56,996.61
2019,05,15,11,57,996.61
2019,05,15,11,58,996.61
2019,05,15,11,59,996.58
2019,05,15,12,00,996.55
2019,05,15,12,01,996.61
2019,05,15,12,02,996.58
2019,05,15,12,03,996.48
2019,05,15,12,04,996.51
2019,05,15,12,05,996.55
2019,05,15,12,06,996.48
2019,05,15,12,07,996.45
2019,05,15,12,08,996.41
2019,05,15,12,09,996.38
2019,05,15,12,10,996.34
2019,05,15,12,11,996.38
2019,05,15,12,12,996.31
2019,05,15,12,13,996.21
2019,05,15,12,14,996.21
2019,05,15,12,15,996.21
2019,05,15,12,16,996.24
2019,05,15,12,17,996.17
2019,05,15,12,18,996.24
2019,05,15,12,19,996.21
2019,05,15,12,20,996.14
2019,05,15,12,21,996.11
2019,05,15,12,22,996.11
2019,05,15,12,23,996.07
2019,05,15,12,24,996.07
2019,05,15,12,25,996.04
2019,05,15,12,26,996.04
2019,05,15,12,27,996.01
2019,05,15,12,28,995.97
2019,05,15,12,29,995.94
2019,05,15,12,30,995.90
2019,05,15,12,31,995.84
2019,05,15,12,32,995.84
2019,05,15,12,33,995.87
2019,05,15,12,34,995.90
2019,05,15,12,35,995.90
2019,05,15,12,36,995.87
2019,05,15,12,37,995.84
2019,05,15,12,38,995.80
2019,05,15,12,39,995.84
2019,05,15,12,40,995.84
2019,05,15,12,41,995.77
2019,05,15,12,42,995.73
2019,05,15,12,43,995.70
2019,05,15,12,44,995.63
2019,05,15,12,45,995.56
2019,05,15,12,46,995.56
2019,05,15,12,47,995.53
2019,05,15,12,48,995.50
2019,05,15,12,49,995.50
2019,05,15,12,50,995.50
2019,05,15,12,51,995.40
2019,05,15,12,52,995.43
2019,05,15,12,53,995.43
2019,05,15,12,54,995.40
2019,05,15,12,55,995.33
2019,05,15,12,56,995.33
2019,05,15,12,57,995.29
2019,05,15,12,58,995.26
2019,05,15,12,59,995.23
2019,05,15,13,00,995.26
2019,05,15,13,01,995.23
2019,05,15,13,02,995.26
2019,05,15,13,03,995.19
2019,05,15,13,04,995.19
2019,05,15,13,05,995.23
2019,05,15,13,06,995.16
2019,05,15,13,07,995.12
2019,05,15,13,08,995.09
2019,05,15,13,09,995.16
2019,05,15,13,10,995.06
2019,05,15,13,11,995.02
2019,05,15,13,12,995.02
2019,05,15,13,13,994.96
2019,05,15,13,14,995.02
2019,05,15,13,15,994.99
2019,05,15,13,16,994.96
2019,05,15,13,17,994.92
2019,05,15,13,18,994.82
2019,05,15,13,19,994.89
2019,05,15,13,20,994.82
2019,05,15,13,21,994.79
2019,05,15,13,22,994.85
2019,05,15,13,23,994.82
2019,05,15,13,24,994.75
2019,05,15,13,25,994.79
2019,05,15,13,26,994.72
2019,05,15,13,27,994.75
2019,05,15,13,28,994.68
2019,05,15,13,29,994.65
2019,05,15,13,30,994.68
2019,05,15,13,31,994.68
2019,05,15,13,32,994.65
2019,05,15,13,33,994.58
2019,05,15,13,34,994.55
2019,05,15,13,35,994.52
2019,05,15,13,36,994.52
2019,05,15,13,37,994.45
2019,05,15,13,38,994.48
2019,05,15,13,39,994.45
2019,05,15,13,40,994.45
2019,05,15,13,41,994.41
2019,05,15,13,42,994.41
2019,05,15,13,43,994.41
2019,05,15,13,44,994.38
2019,05,15,13,45,994.35
2019,05,15,13,46,994.28
2019,05,15,13,47,994.28
2019,05,15,13,48,994.28
2019,05,15,13,49,994.28
2019,05,15,13,50,994.28
2019,05,15,13,51,994.24
2019,05,15,13,52,994.24
2019,05,15,13,53,994.28
2019,05,15,13,54,994.21
2019,05,15,13,55,994.28
2019,05,15,13,56,994.21
2019,05,15,13,57,994.18
2019,05,15,13,58,994.18
2019,05,15,13,59,994.18
2019,05,15,14,00,994.11
2019,05,15,14,01,994.07
2019,05,15,14,02,994.04
2019,05,15,14,03,994.07
2019,05,15,14,04,994.01
2019,05,15,14,05,994.04
2019,05,15,14,06,994.04
2019,05,15,14,07,994.04
2019,05,15,14,08,994.04
2019,05,15,14,09,993.97
2019,05,15,14,10,993.94
2019,05,15,14,11,993.97
2019,05,15,14,12,993.97
2019,05,15,14,13,993.94
2019,05,15,14,14,993.87
2019,05,15,14,15,993.87
2019,05,15,14,16,993.91
2019,05,15,14,17,993.87
2019,05,15,14,18,993.91
2019,05,15,14,19,993.87
2019,05,15,14,20,993.80
2019,05,15,14,21,993.77
2019,05,15,14,22,993.80
2019,05,15,14,23,993.77
2019,05,15,14,24,993.77
2019,05,15,14,25,993.77
2019,05,15,14,26,993.70
2019,05,15,14,27,993.70
2019,05,15,14,28,993.70
2019,05,15,14,29,993.74
2019,05,15,14,30,993.70
2019,05,15,14,31,993.70
2019,05,15,14,32,993.63
2019,05,15,14,33,993.63
2019,05,15,14,34,993.63
2019,05,15,14,35,993.60
2019,05,15,14,36,993.57
2019,05,15,14,37,993.60
2019,05,15,14,38,993.53
2019,05,15,14,39,993.53
2019,05,15,14,40,993.50
2019,05,15,14,41,993.47
2019,05,15,14,42,993.50
2019,05,15,14,43,993.47
2019,05,15,14,44,993.43
2019,05,15,14,45,993.47
2019,05,15,14,46,993.47
2019,05,15,14,47,993.43
2019,05,15,14,48,993.40
2019,05,15,14,49,993.36
2019,05,15,14,50,993.43
2019,05,15,14,51,993.40
2019,05,15,14,52,993.36
2019,05,15,14,53,993.30
2019,05,15,14,54,993.33
2019,05,15,14,55,993.30
2019,05,15,14,56,993.26
2019,05,15,14,57,993.23
2019,05,15,14,58,993.19
2019,05,15,14,59,993.16
2019,05,15,15,00,993.16
2019,05,15,15,01,993.13
2019,05,15,15,02,993.09
2019,05,15,15,03,993.13
2019,05,15,15,04,993.09
2019,05,15,15,05,993.06
2019,05,15,15,06,993.09
2019,05,15,15,07,993.06
2019,05,15,15,08,993.03
2019,05,15,15,09,993.06
2019,05,15,15,10,993.06
2019,05,15,15,11,993.03
2019,05,15,15,12,993.06
2019,05,15,15,13,993.03
2019,05,15,15,14,993.03
2019,05,15,15,15,992.96
2019,05,15,15,16,992.99
2019,05,15,15,17,992.99
2019,05,15,15,18,993.03
2019,05,15,15,19,992.99
2019,05,15,15,20,992.99
2019,05,15,15,21,992.96
2019,05,15,15,22,992.96
2019,05,15,15,23,992.89
2019,05,15,15,24,992.82
2019,05,15,15,25,992.82
2019,05,15,15,26,992.82
2019,05,15,15,27,992.82
2019,05,15,15,28,992.86
2019,05,15,15,29,992.79
2019,05,15,15,30,992.82
2019,05,15,15,31,992.75
2019,05,15,15,32,992.75
2019,05,15,15,33,992.75
2019,05,15,15,34,992.75
2019,05,15,15,35,992.72
2019,05,15,15,36,992.72
2019,05,15,15,37,992.69
2019,05,15,15,38,992.65
2019,05,15,15,39,992.65
2019,05,15,15,40,992.58
2019,05,15,15,41,992.58
2019,05,15,15,42,992.58
2019,05,15,15,43,992.55
2019,05,15,15,44,992.52
2019,05,15,15,45,992.52
2019,05,15,15,46,992.48
2019,05,15,15,47,992.48
2019,05,15,15,48,992.45
2019,05,15,15,49,992.38
2019,05,15,15,50,992.38
2019,05,15,15,51,992.38
2019,05,15,15,52,992.35
2019,05,15,15,53,992.38
2019,05,15,15,54,992.38
2019,05,15,15,55,992.35
2019,05,15,15,56,992.35
2019,05,15,15,57,992.35
2019,05,15,15,58,992.31
2019,05,15,15,59,992.31
2019,05,15,16,00,992.28
2019,05,15,16,01,992.28
2019,05,15,16,02,992.28
2019,05,15,16,03,992.25
2019,05,15,16,04,992.25
2019,05,15,16,05,992.21
2019,05,15,16,06,992.18
2019,05,15,16,07,992.18
2019,05,15,16,08,992.11
2019,05,15,16,09,992.08
2019,05,15,16,10,992.08
2019,05,15,16,11,992.08
2019,05,15,16,12,992.04
2019,05,15,16,13,992.04
2019,05,15,16,14,992.01